SCP
0 0 0 0 0 0 0 0 0 0 0 0 0 0 0 0 0 0 0 0 0 0 0 0 0 0 0 0 0 0 0 0 0 0 0 0 0 0 0 0 0 0 0 0
0 0 0 0 0 0 0 0 0 0 0 0 0 0 0 0 0 0 0 0 0 0 0 0 0 0 0 0 0 0 0 0 0 0 0 0 0 0 0 0 0 0 0 0
0 0 0 -0 0 -0 0 0 0 0 0 0 0 0 0 0 0 0 0 0 0 0 0 0 0 0 0 0 0 0 0 0 0 0 0 0 0 0 0 0 0 0 0 0
0 0 0 0 0 0 0 0 0 0 0 0 0 0 0 0 0 0 0 0 0 0 0 0 0 0 0 0 0 0 0 0 0 0 0 0 0 0 0 0 0 0 0 0
0 0 0 0 0 0 0 0 0 0 0 0 0 0 0 0 0 0 0 -0 -0 0 0 0 0 0 0 0 0 0 0 0 0 0 0 0 0 0 0 0 0 0 0 0
0 0 0 0 0 0 0 0 0 0 0 0 0 0 0 0 0 -0 -0 0 0 0 0 0 0 0 0 0 0 0 0 0 0 0 0 0 0 0 0 0 0 0 0 0
0 0 -0 0 0 0 0 0 0 0 0 0 0 0 0 0 -0 0 0 0 0 0 0 0 0 0 0 0 0 0 0 0 0 0 0 0 0 0 -0 0 0 0 0 0
0 0 0 0 0 0 0 0 0 0 0 0 0 0 0 0 -0 0 0 0 0 0 0 0 0 0 0 0 0 0 0 0 0 0 0 0 0 0 0 0 0 0 0 0
0 0 0 -0 -0 -0 -0 0 0 0 0 0 0 0 0 0 0 0 0 0 0 0 0 0 0 0 0 0 0 0 0 0 0 0 0 0 0 0 0 -0 0 0 0 0
0 0 0 0 0 -0 0 0 0 0 0 0 0 0 0 0 0 0 0 0 0 0 0 0 0 0 0 0 0 0 0 0 0 0 0 0 0 0 0 0 0 0 0 0
0 0 -0 0 0 0 0 0 0 0 0 0 0 0 0 0 0 0 0 0 0 0 0 0 0 0 0 0 0 0 0 0 0 0 0 0 0 0 0 0 0 0 0 0
-0 0 -0 0 0 0 0 0 0 0 0 0 0 0 -0 -0 -0 -0 0 0 0 0 0 0 0 0 0 0 0 0 0 0 0 -0 -0 -0 -0 -0 -0 -0 -0 0 0 -0
0 0 -0 -0 0 0 0 0 0 -0 -0 -0 -0 -0 -0 -0 -0 -0 -0 0 -0 0 0 0 0 0 0 0 0 0 0 0 -0 -0 -0 -0 -0 0 0 -0 0 0 0 0
0 -0 -0 0 -0 -0 -0 -0 -0 -0 -0 -0 -0 -0 -0 -0 -0 -0 0 0 -0 0 0 0 0 0 0 0 -0 0 0 -0 0 0 0 0 0 0 0 0 0 -0 -0 0
-0 0 -0 -0 -0 0 0 0 0 0 0 -0 -0 0 0 0 0 -0 -0 -0 0 0 0 0 0 0 -0 0 0 0 -0 0 0 0 0 0 0 0 0 0 0 -0 0 0
0 0 -0 0 0 0 0 0 0 0 0 0 -0 -0 -0 0 0 -0 -0 0 0 0 -0 -0 -0 -0 -0 -0 -0 -0 0 -0 0 0 0 0 0 0 0 0 0 0 0 0
0 0 0 -0 -0 0 0 -0 0 0 -0 -0 -0 0 0 0 0 0 0 0 -0 -0 0 -0 -0 -0 -0 -0 -0 -0 -0 0 0 0 0 0 0 0 0 0 0 0 0 0
0 0 0 0 -0 -0 -0 0 -0 -0 -0 -0 0 0 0 0 0 0 0 -0 -0 0 0 -0 -0 -0 -0 -0 -0 -0 0 0 0 0 0 0 0 0 0 0 0 0 0 0
0 0 0 0 0 0 0 -0 -0 -0 0 0 0 0 0 0 0 0 0 -0 0 0 0 0 -0 -0 -0 -0 -0 -0 0 -0 -0 0 0 0 0 0 0 0 0 0 0 0
-0 0 0 0 0 0 -0 -0 0 0 0 0 0 0 0 0 0 0 0 0 0 0 0 -0 -0 -0 -0 -0 -0 0 -0 0 0 0 0 0 0 0 0 0 0 0 0 0
0 -0 0 -0 0 0 -0 0 0 0 0 0 0 0 0 0 0 0 0 0 0 0 -0 -0 -0 -0 -0 -0 -0 -0 0 0 0 0 0 0 0 0 0 0 0 0 0 0
0 -0 -0 -0 0 0 0 0 0 0 -0 -0 0 0 0 0 0 0 0 0 0 -0 -0 0 -0 -0 -0 -0 -0 -0 -0 0 0 0 0 0 0 0 0 0 0 0 0 0
0 0 0 0 0 0 -0 -0 -0 -0 -0 -0 0 0 0 0 0 0 0 0 0 -0 -0 -0 -0 -0 0 0 0 -0 -0 0 0 0 0 0 0 0 0 0 0 0 0 0
0 0 0 0 0 0 0 0 -0 -0 0 0 0 0 0 0 0 0 0 0 0 -0 -0 -0 -0 -0 -0 0 0 0 -0 0 0 0 0 0 0 0 0 0 0 0 0 0
0 0 0 0 0 0 0 0 -0 -0 0 -0 -0 0 0 0 0 0 0 0 0 0 0 -0 -0 -0 0 0 0 0 0 0 -0 0 -0 -0 0 0 0 0 0 0 0 0
0 0 0 0 0 0 0 0 0 0 0 0 -0 0 0 0 0 0 0 0 0 0 -0 -0 -0 -0 -0 -0 0 0 0 0 0 0 0 0 0 0 0 0 0 0 0 0
0 0 0 0 0 0 0 0 0 0 0 0 -0 0 0 0 0 0 0 0 0 0 0 -0 -0 -0 -0 -0 -0 -0 -0 0 0 0 0 0 0 0 0 0 0 0 0 0
Wind_Speed_500mb
36 26 14 15 21 27 33 43 36 54 46 57 40 38 38 39 28 25 32 32 18 9 11 12 15 17 19 22 29 36 43 49 55 59 66 66 64 65 64 65 65 68 69 66
20 36 40 39 31 41 47 53 45 57 66 38 38 20 18 12 15 18 18 21 24 26 28 30 34 42 44 48 50 52 60 66 71 75 76 75 73 71 73 72 71 71 72 68
16 28 31 25 49 50 55 49 47 44 60 30 26 8 7 15 21 28 30 29 32 33 39 47 53 55 62 65 70 75 77 82 84 86 86 83 78 74 75 75 78 78 79 71
23 30 27 30 11 20 33 39 39 40 36 12 10 17 22 30 30 30 31 32 43 56 63 63 61 62 64 64 64 68 70 71 76 77 78 75 71 72 75 76 82 86 81 75
17 27 26 29 13 10 15 20 17 15 6 11 20 26 34 24 20 28 50 60 63 63 65 64 67 69 68 67 66 65 67 64 60 61 62 56 64 71 75 82 85 82 79 75
9 11 9 8 20 18 2 16 16 19 22 27 22 17 21 31 51 59 57 59 66 66 66 72 68 63 68 69 65 64 62 62 59 54 52 60 66 75 83 87 90 79 80 73
15 13 7 15 22 17 15 5 31 25 34 34 26 30 49 55 60 61 61 66 65 69 78 74 69 68 73 72 72 69 67 65 61 63 77 82 87 93 92 88 81 77 76 70
15 14 14 23 12 10 21 49 38 37 33 32 45 56 61 60 61 65 73 74 70 76 74 74 73 72 77 80 83 83 73 70 72 75 72 73 74 81 75 67 70 74 66 64
8 12 8 18 32 37 44 53 45 29 37 44 56 63 61 66 67 68 69 72 73 80 85 82 81 82 85 85 76 77 80 95 94 72 64 61 66 67 61 59 63 63 59 61
13 20 21 39 39 38 30 29 29 39 44 48 59 63 67 68 68 69 73 78 77 78 80 83 73 68 73 78 74 77 77 75 71 68 62 67 70 68 60 65 68 61 59 61
40 47 46 29 33 41 35 36 41 42 43 51 54 60 61 66 70 74 77 78 74 76 80 85 82 82 81 78 73 75 74 77 74 74 73 65 67 70 68 69 71 63 60 59
27 45 48 60 62 50 49 41 31 37 48 44 44 53 57 65 73 72 72 75 81 79 78 80 78 77 75 70 68 67 70 68 65 63 63 59 62 65 65 70 71 63 63 62
41 53 58 62 53 28 25 31 35 40 40 45 50 48 55 68 71 74 75 74 73 74 73 73 71 70 62 55 51 55 60 63 60 62 62 59 57 56 57 51 53 58 67 66
56 52 34 11 27 33 32 35 36 40 39 40 47 60 60 61 67 70 73 71 68 69 72 69 68 71 61 51 45 47 50 53 52 53 52 52 52 51 55 49 41 54 62 59
36 33 32 34 35 28 32 41 40 40 46 52 55 56 56 62 65 68 68 63 62 65 63 60 62 62 50 40 41 46 49 52 51 48 47 48 43 44 48 43 39 44 48 47
35 31 30 30 32 32 42 39 39 46 49 52 56 54 52 55 58 60 61 57 59 64 57 53 55 55 48 40 37 41 44 45 47 44 41 37 41 39 34 38 43 42 47 47
25 32 32 28 28 30 39 39 40 43 47 50 52 48 50 55 57 61 64 56 56 58 51 54 55 46 37 26 22 27 29 34 33 34 34 34 35 35 33 37 38 43 39 43
29 29 26 25 27 27 43 47 51 51 48 47 47 47 51 55 58 62 67 60 63 61 55 58 55 49 34 23 21 23 19 24 30 36 37 37 36 36 36 38 40 41 39 43
31 33 31 29 29 30 39 47 53 58 43 45 46 47 50 55 54 58 65 62 66 68 65 54 45 38 35 25 17 17 13 15 22 26 32 38 37 37 40 40 44 41 40 47
37 32 30 28 26 29 39 44 46 51 40 43 44 44 48 55 57 60 64 64 63 62 55 50 46 36 27 20 9 11 12 16 21 22 26 31 37 40 40 38 39 38 41 45
36 41 39 31 30 32 37 39 42 38 40 43 48 49 48 53 56 60 72 74 70 63 60 56 48 41 28 20 11 7 10 13 18 22 27 27 31 31 35 32 32 36 50 53
31 37 39 39 36 35 41 36 34 34 39 45 51 55 50 54 61 62 65 69 69 72 71 64 53 40 37 28 20 11 14 13 21 26 33 27 27 28 29 32 37 47 51 57
31 32 34 38 41 37 37 39 36 33 36 42 48 52 54 51 60 67 74 70 72 74 73 67 60 55 55 51 45 35 26 22 23 22 25 20 19 21 21 36 45 42 51 57
38 34 31 33 35 38 43 41 35 37 37 36 42 49 57 57 58 59 63 67 64 68 73 70 63 63 64 66 62 54 47 40 33 29 27 25 20 22 25 29 38 48 55 56
41 38 36 37 36 37 41 46 47 41 40 43 46 48 53 60 62 60 62 69 74 73 77 77 72 70 66 68 65 60 54 51 41 38 33 31 29 31 33 37 43 52 54 60
39 41 39 38 41 41 42 44 49 54 51 51 45 49 53 57 58 65 66 67 72 77 79 85 84 78 75 72 67 64 59 53 49 48 45 44 41 39 40 44 47 48 60 82
30 33 33 35 42 42 48 52 50 54 57 51 51 48 48 52 60 68 69 73 74 78 80 77 82 86 86 77 69 64 62 57 50 49 50 45 40 38 40 43 44 54 76 82
Wind_Direction_500mb
286 285 298 273 255 231 223 245 254 266 263 269 275 290 293 293 284 278 285 281 271 311 346 1 345 324 308 292 282 277 274 271 274 279 284 286 284 281 282 282 288 298 293 275
271 270 272 278 264 262 258 256 253 258 264 272 297 292 281 280 296 290 305 288 289 309 319 318 310 304 299 292 286 280 276 276 280 282 283 286 282 277 273 278 284 295 291 280
265 292 291 265 245 242 242 244 243 245 259 304 279 262 306 307 306 300 301 304 306 308 307 305 301 299 295 291 288 284 282 281 280 281 281 280 279 275 267 273 283 290 290 281
268 283 252 266 296 273 251 253 247 253 266 265 272 293 298 298 300 299 305 302 298 297 296 295 294 290 287 283 282 281 280 278 278 278 278 275 270 263 264 274 284 288 287 279
246 248 269 269 257 252 239 250 230 222 205 285 302 301 286 287 293 298 297 296 294 292 289 288 289 287 282 278 277 274 272 273 275 273 269 261 259 263 271 279 286 285 282 276
213 251 251 20 32 335 109 252 91 346 319 309 309 289 294 309 303 299 294 294 293 291 285 288 286 284 279 276 273 272 272 272 271 263 259 262 266 271 275 280 283 280 276 270
279 270 272 42 0 347 232 10 311 302 304 293 281 288 299 301 300 298 295 296 295 290 287 286 286 284 279 274 271 274 272 269 265 265 272 274 275 276 279 278 276 272 271 268
293 232 237 29 41 348 279 292 299 301 297 292 295 299 301 300 297 296 295 295 294 292 287 284 283 279 275 273 274 274 266 265 270 272 268 266 267 269 270 264 266 265 266 264
254 268 240 288 232 268 274 283 292 287 300 300 298 299 300 300 300 297 295 293 293 290 289 286 284 278 274 274 271 266 266 268 271 265 260 261 264 262 258 257 255 258 258 255
283 277 293 296 295 293 284 276 284 292 295 300 298 299 299 300 299 297 297 296 295 291 286 286 285 281 277 279 278 271 270 269 268 260 257 260 262 258 253 252 252 251 252 247
280 282 288 293 305 309 293 286 288 294 296 295 294 295 296 296 297 297 297 297 296 292 289 288 290 286 286 282 278 272 269 269 264 259 263 263 260 255 254 252 249 250 248 237
277 291 299 295 302 302 295 289 291 299 300 297 298 298 297 296 300 299 300 306 306 304 299 297 295 290 287 284 277 274 272 270 266 262 260 258 257 258 257 260 257 247 235 238
292 291 293 293 297 295 310 307 307 302 300 304 305 302 302 305 308 313 314 317 315 311 310 307 304 301 299 295 283 274 268 268 267 264 262 260 256 254 256 257 254 238 232 239
301 293 296 314 311 314 305 313 309 306 305 306 310 318 318 317 319 321 320 319 318 317 314 312 311 307 309 303 289 274 268 268 268 266 263 259 254 251 252 254 240 236 240 241
348 336 326 319 313 317 320 318 315 317 321 324 327 327 328 327 324 323 326 327 323 319 318 316 311 311 313 295 273 263 261 264 265 263 262 255 249 248 253 242 234 247 249 241
324 335 337 335 328 329 331 328 325 326 328 329 332 334 334 332 329 334 340 335 331 329 329 325 319 320 315 303 283 268 260 254 250 252 263 249 237 235 236 232 244 242 241 213
322 335 333 337 340 339 345 342 339 339 337 337 336 340 341 342 339 341 345 346 344 343 341 343 337 338 332 324 308 296 268 251 247 246 242 231 226 226 227 245 236 245 234 214
315 312 314 324 332 330 347 353 353 347 342 341 346 347 349 351 347 348 353 354 353 349 353 342 339 341 342 326 302 307 288 249 230 229 223 220 224 223 233 236 231 234 226 200
336 325 320 314 326 339 343 346 352 350 348 351 353 355 358 358 354 355 358 3 359 353 354 350 340 332 336 327 280 275 265 222 202 216 221 220 222 224 221 218 223 229 211 184
355 355 343 333 331 336 342 344 345 348 359 1 4 4 4 6 8 5 7 7 6 1 360 6 8 6 348 338 295 245 212 189 208 217 220 216 215 216 218 213 211 208 188 184
9 10 11 12 7 0 351 350 348 359 6 18 19 16 12 13 17 20 15 9 16 14 19 22 23 19 19 15 35 179 165 188 216 201 197 185 194 196 196 194 192 191 180 184
13 18 22 21 15 10 4 6 9 9 13 18 22 21 20 20 21 25 28 20 23 27 28 29 35 42 49 50 54 91 147 175 183 181 176 173 179 177 184 191 190 184 184 184
12 9 9 13 14 14 12 19 18 14 19 23 22 21 25 29 29 26 25 28 29 31 33 34 40 48 56 60 67 80 111 147 164 162 157 158 157 164 161 175 177 183 187 183
17 17 17 15 19 24 23 24 29 31 30 30 30 31 29 31 38 38 37 35 34 36 36 37 42 48 53 58 63 70 74 83 91 105 121 146 179 172 157 158 168 172 176 174
29 34 36 34 31 27 28 32 41 43 43 40 38 39 38 39 38 36 39 40 39 40 41 42 47 52 53 57 58 60 67 71 75 83 93 107 122 129 142 156 158 160 160 160
30 34 36 38 39 34 33 36 38 38 40 41 40 42 43 43 42 42 43 45 46 44 46 48 48 51 52 55 58 60 62 67 74 79 86 97 110 123 137 143 148 150 152 148
30 33 38 41 41 39 39 41 40 39 41 41 40 43 45 45 47 47 45 46 48 50 51 50 53 54 54 56 58 59 60 62 63 73 78 76 82 104 126 140 143 148 147 145
Wind_Speed_850mb
36 26 14 15 21 27 33 43 36 54 46 57 40 38 38 39 28 25 32 32 18 9 11 12 15 17 19 22 29 36 43 49 55 59 66 66 64 65 64 65 65 68 69 66
20 36 40 39 31 41 47 53 45 57 66 38 38 20 18 12 15 18 18 21 24 26 28 30 34 42 44 48 50 52 60 66 71 75 76 75 73 71 73 72 71 71 72 68
16 28 31 25 49 50 55 49 47 44 60 30 26 8 7 15 21 28 30 29 32 33 39 47 53 55 62 65 70 75 77 82 84 86 86 83 78 74 75 75 78 78 79 71
23 30 27 30 11 20 33 39 39 40 36 12 10 17 22 30 30 30 31 32 43 56 63 63 61 62 64 64 64 68 70 71 76 77 78 75 71 72 75 76 82 86 81 75
17 27 26 29 13 10 15 20 17 15 6 11 20 26 34 24 20 28 50 60 63 63 65 64 67 69 68 67 66 65 67 64 60 61 62 56 64 71 75 82 85 82 79 75
9 11 9 8 20 18 2 16 16 19 22 27 22 17 21 31 51 59 57 59 66 66 66 72 68 63 68 69 65 64 62 62 59 54 52 60 66 75 83 87 90 79 80 73
15 13 7 15 22 17 15 5 31 25 34 34 26 30 49 55 60 61 61 66 65 69 78 74 69 68 73 72 72 69 67 65 61 63 77 82 87 93 92 88 81 77 76 70
15 14 14 23 12 10 21 49 38 37 33 32 45 56 61 60 61 65 73 74 70 76 74 74 73 72 77 80 83 83 73 70 72 75 72 73 74 81 75 67 70 74 66 64
8 12 8 18 32 37 44 53 45 29 37 44 56 63 61 66 67 68 69 72 73 80 85 82 81 82 85 85 76 77 80 95 94 72 64 61 66 67 61 59 63 63 59 61
13 20 21 39 39 38 30 29 29 39 44 48 59 63 67 68 68 69 73 78 77 78 80 83 73 68 73 78 74 77 77 75 71 68 62 67 70 68 60 65 68 61 59 61
40 47 46 29 33 41 35 36 41 42 43 51 54 60 61 66 70 74 77 78 74 76 80 85 82 82 81 78 73 75 74 77 74 74 73 65 67 70 68 69 71 63 60 59
27 45 48 60 62 50 49 41 31 37 48 44 44 53 57 65 73 72 72 75 81 79 78 80 78 77 75 70 68 67 70 68 65 63 63 59 62 65 65 70 71 63 63 62
41 53 58 62 53 28 25 31 35 40 40 45 50 48 55 68 71 74 75 74 73 74 73 73 71 70 62 55 51 55 60 63 60 62 62 59 57 56 57 51 53 58 67 66
56 52 34 11 27 33 32 35 36 40 39 40 47 60 60 61 67 70 73 71 68 69 72 69 68 71 61 51 45 47 50 53 52 53 52 52 52 51 55 49 41 54 62 59
36 33 32 34 35 28 32 41 40 40 46 52 55 56 56 62 65 68 68 63 62 65 63 60 62 62 50 40 41 46 49 52 51 48 47 48 43 44 48 43 39 44 48 47
35 31 30 30 32 32 42 39 39 46 49 52 56 54 52 55 58 60 61 57 59 64 57 53 55 55 48 40 37 41 44 45 47 44 41 37 41 39 34 38 43 42 47 47
25 32 32 28 28 30 39 39 40 43 47 50 52 48 50 55 57 61 64 56 56 58 51 54 55 46 37 26 22 27 29 34 33 34 34 34 35 35 33 37 38 43 39 43
29 29 26 25 27 27 43 47 51 51 48 47 47 47 51 55 58 62 67 60 63 61 55 58 55 49 34 23 21 23 19 24 30 36 37 37 36 36 36 38 40 41 39 43
31 33 31 29 29 30 39 47 53 58 43 45 46 47 50 55 54 58 65 62 66 68 65 54 45 38 35 25 17 17 13 15 22 26 32 38 37 37 40 40 44 41 40 47
37 32 30 28 26 29 39 44 46 51 40 43 44 44 48 55 57 60 64 64 63 62 55 50 46 36 27 20 9 11 12 16 21 22 26 31 37 40 40 38 39 38 41 45
36 41 39 31 30 32 37 39 42 38 40 43 48 49 48 53 56 60 72 74 70 63 60 56 48 41 28 20 11 7 10 13 18 22 27 27 31 31 35 32 32 36 50 53
31 37 39 39 36 35 41 36 34 34 39 45 51 55 50 54 61 62 65 69 69 72 71 64 53 40 37 28 20 11 14 13 21 26 33 27 27 28 29 32 37 47 51 57
31 32 34 38 41 37 37 39 36 33 36 42 48 52 54 51 60 67 74 70 72 74 73 67 60 55 55 51 45 35 26 22 23 22 25 20 19 21 21 36 45 42 51 57
38 34 31 33 35 38 43 41 35 37 37 36 42 49 57 57 58 59 63 67 64 68 73 70 63 63 64 66 62 54 47 40 33 29 27 25 20 22 25 29 38 48 55 56
41 38 36 37 36 37 41 46 47 41 40 43 46 48 53 60 62 60 62 69 74 73 77 77 72 70 66 68 65 60 54 51 41 38 33 31 29 31 33 37 43 52 54 60
39 41 39 38 41 41 42 44 49 54 51 51 45 49 53 57 58 65 66 67 72 77 79 85 84 78 75 72 67 64 59 53 49 48 45 44 41 39 40 44 47 48 60 82
30 33 33 35 42 42 48 52 50 54 57 51 51 48 48 52 60 68 69 73 74 78 80 77 82 86 86 77 69 64 62 57 50 49 50 45 40 38 40 43 44 54 76 82
Wind_Direction_850mb
286 285 298 273 255 231 223 245 254 266 263 269 275 290 293 293 284 278 285 281 271 311 346 1 345 324 308 292 282 277 274 271 274 279 284 286 284 281 282 282 288 298 293 275
271 270 272 278 264 262 258 256 253 258 264 272 297 292 281 280 296 290 305 288 289 309 319 318 310 304 299 292 286 280 276 276 280 282 283 286 282 277 273 278 284 295 291 280
265 292 291 265 245 242 242 244 243 245 259 304 279 262 306 307 306 300 301 304 306 308 307 305 301 299 295 291 288 284 282 281 280 281 281 280 279 275 267 273 283 290 290 281
268 283 252 266 296 273 251 253 247 253 266 265 272 293 298 298 300 299 305 302 298 297 296 295 294 290 287 283 282 281 280 278 278 278 278 275 270 263 264 274 284 288 287 279
246 248 269 269 257 252 239 250 230 222 205 285 302 301 286 287 293 298 297 296 294 292 289 288 289 287 282 278 277 274 272 273 275 273 269 261 259 263 271 279 286 285 282 276
213 251 251 20 32 335 109 252 91 346 319 309 309 289 294 309 303 299 294 294 293 291 285 288 286 284 279 276 273 272 272 272 271 263 259 262 266 271 275 280 283 280 276 270
279 270 272 42 0 347 232 10 311 302 304 293 281 288 299 301 300 298 295 296 295 290 287 286 286 284 279 274 271 274 272 269 265 265 272 274 275 276 279 278 276 272 271 268
293 232 237 29 41 348 279 292 299 301 297 292 295 299 301 300 297 296 295 295 294 292 287 284 283 279 275 273 274 274 266 265 270 272 268 266 267 269 270 264 266 265 266 264
254 268 240 288 232 268 274 283 292 287 300 300 298 299 300 300 300 297 295 293 293 290 289 286 284 278 274 274 271 266 266 268 271 265 260 261 264 262 258 257 255 258 258 255
283 277 293 296 295 293 284 276 284 292 295 300 298 299 299 300 299 297 297 296 295 291 286 286 285 281 277 279 278 271 270 269 268 260 257 260 262 258 253 252 252 251 252 247
280 282 288 293 305 309 293 286 288 294 296 295 294 295 296 296 297 297 297 297 296 292 289 288 290 286 286 282 278 272 269 269 264 259 263 263 260 255 254 252 249 250 248 237
277 291 299 295 302 302 295 289 291 299 300 297 298 298 297 296 300 299 300 306 306 304 299 297 295 290 287 284 277 274 272 270 266 262 260 258 257 258 257 260 257 247 235 238
292 291 293 293 297 295 310 307 307 302 300 304 305 302 302 305 308 313 314 317 315 311 310 307 304 301 299 295 283 274 268 268 267 264 262 260 256 254 256 257 254 238 232 239
301 293 296 314 311 314 305 313 309 306 305 306 310 318 318 317 319 321 320 319 318 317 314 312 311 307 309 303 289 274 268 268 268 266 263 259 254 251 252 254 240 236 240 241
348 336 326 319 313 317 320 318 315 317 321 324 327 327 328 327 324 323 326 327 323 319 318 316 311 311 313 295 273 263 261 264 265 263 262 255 249 248 253 242 234 247 249 241
324 335 337 335 328 329 331 328 325 326 328 329 332 334 334 332 329 334 340 335 331 329 329 325 319 320 315 303 283 268 260 254 250 252 263 249 237 235 236 232 244 242 241 213
322 335 333 337 340 339 345 342 339 339 337 337 336 340 341 342 339 341 345 346 344 343 341 343 337 338 332 324 308 296 268 251 247 246 242 231 226 226 227 245 236 245 234 214
315 312 314 324 332 330 347 353 353 347 342 341 346 347 349 351 347 348 353 354 353 349 353 342 339 341 342 326 302 307 288 249 230 229 223 220 224 223 233 236 231 234 226 200
336 325 320 314 326 339 343 346 352 350 348 351 353 355 358 358 354 355 358 3 359 353 354 350 340 332 336 327 280 275 265 222 202 216 221 220 222 224 221 218 223 229 211 184
355 355 343 333 331 336 342 344 345 348 359 1 4 4 4 6 8 5 7 7 6 1 360 6 8 6 348 338 295 245 212 189 208 217 220 216 215 216 218 213 211 208 188 184
9 10 11 12 7 0 351 350 348 359 6 18 19 16 12 13 17 20 15 9 16 14 19 22 23 19 19 15 35 179 165 188 216 201 197 185 194 196 196 194 192 191 180 184
13 18 22 21 15 10 4 6 9 9 13 18 22 21 20 20 21 25 28 20 23 27 28 29 35 42 49 50 54 91 147 175 183 181 176 173 179 177 184 191 190 184 184 184
12 9 9 13 14 14 12 19 18 14 19 23 22 21 25 29 29 26 25 28 29 31 33 34 40 48 56 60 67 80 111 147 164 162 157 158 157 164 161 175 177 183 187 183
17 17 17 15 19 24 23 24 29 31 30 30 30 31 29 31 38 38 37 35 34 36 36 37 42 48 53 58 63 70 74 83 91 105 121 146 179 172 157 158 168 172 176 174
29 34 36 34 31 27 28 32 41 43 43 40 38 39 38 39 38 36 39 40 39 40 41 42 47 52 53 57 58 60 67 71 75 83 93 107 122 129 142 156 158 160 160 160
30 34 36 38 39 34 33 36 38 38 40 41 40 42 43 43 42 42 43 45 46 44 46 48 48 51 52 55 58 60 62 67 74 79 86 97 110 123 137 143 148 150 152 148
30 33 38 41 41 39 39 41 40 39 41 41 40 43 45 45 47 47 45 46 48 50 51 50 53 54 54 56 58 59 60 62 63 73 78 76 82 104 126 140 143 148 147 145